Weather observations for the past three days for
Cornelia Habersham County Airport
Imperial (Metric)
Date Time (edt) Wind (mph) Vis. (mi.) Weather Sky Cond. Temperature (ºF) Relative Humidity Wind Chill (°F) Heat Index (°F) Pressure Precipitation (in)
Air Dwpt 6 hour altimeter (in) sea level (mb) 1 hr 3 hr 6 hr
Max. Min.
24 09:55 NW 9 10.00 Partly Cloudy SCT025 81.5 68.5 65% 85 29.95 0.0
24 09:35 NW 6 7.00 Fair CLR 80.4 68.2 66% 83 29.94 0.0
24 09:15 W 7 10.00 Fair CLR 79.9 69.3 70% 83 29.94 0.0
24 08:55 NW 6 10.00 Fair CLR 79.3 69.4 72% 82 29.93 0.0
24 08:35 NW 3 10.00 Fair CLR 78.1 69.4 75% 80 29.93 0.0
24 08:15 W 5 10.00 Fair CLR 77 69.4 78% 79 29.93 0.0
24 07:55 NW 6 10.00 Fair CLR 75.6 69.3 76.8 72.9 81% 76 29.93 0.0
24 07:35 W 3 10.00 Fair CLR 74.3 69.1 84% 29.92 0.0
24 07:15 W 5 10.00 Fair CLR 73.9 69.1 85% 29.92 0.0
24 06:55 NW 3 10.00 Fair CLR 73.4 68.9 86% 29.92 0.0
24 06:35 Calm 10.00 Fair CLR 73.4 68.9 86% 29.9 0.0
24 06:15 Calm 10.00 Partly Cloudy SCT120 74.3 68.9 83% 29.89 0.0
24 05:55 Calm 10.00 Mostly Cloudy SCT070 SCT085 BKN110 74.7 68.9 82% 29.89 0.0
24 05:35 NW 5 10.00 Light Rain BKN070 BKN100 75.4 68.9 80% 76 29.9 0.0
24 05:15 NW 3 10.00 Mostly Cloudy SCT060 BKN070 BKN080 76.5 68.2 76% 78 29.9 0.0
24 04:55 N 5 10.00 Overcast SCT065 BKN070 OVC080 76.6 67.8 74% 78 29.89 0.0
24 04:35 NW 7 10.00 Mostly Cloudy BKN075 BKN090 76.3 66.7 72% 78 29.9 0.0
24 04:15 NW 5 10.00 Overcast BKN050 BKN055 OVC090 76.8 64 65% 79 29.9 0.0
24 03:55 N 3 10.00 Overcast OVC060 75.6 63.5 66% 77 29.9 0.0
24 03:35 W 5 10.00 Mostly Cloudy BKN060 BKN070 76.3 63 64% 78 29.9 0.0
24 03:15 SW 5 10.00 Partly Cloudy SCT070 76.1 63 64% 78 29.89 0.0
24 02:55 SW 5 10.00 Fair CLR 76.3 63 64% 78 29.89 0.0
24 02:35 SW 5 10.00 Fair CLR 76.3 63.3 64% 78 29.9 0.0
24 02:15 SW 5 10.00 Partly Cloudy SCT080 75.9 63.5 66% 78 29.9 0.0
24 01:55 SW 5 7.00 Partly Cloudy SCT070 SCT090 75.9 64.2 87.4 75.2 67% 78 29.91 0.0
24 01:35 SW 3 10.00 Mostly Cloudy BKN070 BKN090 75.7 64.6 68% 77 29.92 0.0
24 01:15 Calm 10.00 Overcast OVC070 77.2 63.5 63% 79 29.92 0.0
24 00:55 Calm 10.00 Mostly Cloudy BKN070 77.4 63.3 62% 79 29.92 0.0
24 00:35 SW 3 10.00 Partly Cloudy SCT070 77.2 63.1 62% 79 29.92 0.0
24 00:15 Calm 10.00 Fair CLR 77.9 63.5 61% 80 29.92 0.0
23 23:55 Calm 10.00 Fair CLR 78.8 63.5 60% 80 29.92 0.0
23 23:35 Calm 10.00 Fair CLR 78.1 63.5 61% 80 29.92 0.0
23 23:15 Calm 10.00 Fair CLR 79 63.7 60% 81 29.93 0.0
23 22:55 Calm 10.00 Fair CLR 79.9 62.6 56% 81 29.93 0.0
23 22:35 Calm 5.00 Fair with Haze CLR 80.6 62.4 54% 82 29.93 0.0
23 22:15 SW 3 10.00 Fair CLR 80.2 62.6 55% 82 29.93 0.0
23 21:55 Calm 10.00 Fair CLR 80.4 63 55% 82 29.92 0.0
23 21:35 Calm 10.00 Fair CLR 81.5 63 53% 83 29.92 0.0
23 20:55 Calm 10.00 Fair CLR 83.5 63 50% 84 29.91 0.0
23 19:55 W 5 10.00 Fair CLR 87.6 61.7 92.3 87.4 42% 88 29.91 0.0
23 19:35 W 7 10.00 Fair CLR 88.7 61 39% 89 29.9 0.0
23 19:15 W 7 G 10 7.00 Partly Cloudy SCT070 89.2 61 39% 89 29.9 0.0
23 18:55 W 10 10.00 Partly Cloudy SCT070 89.6 60.8 38% 90 29.9 0.0
23 18:35 W 9 10.00 Fair CLR 90 60.3 37% 90 29.9 0.0
23 18:15 SW 10 10.00 Fair CLR 90.1 59.4 36% 90 29.9 0.0
23 17:55 W 8 7.00 Fair CLR 90.7 59.9 36% 90 29.9 0.0
23 17:35 W 8 10.00 Fair CLR 90.9 60.3 36% 91 29.9 0.0
23 17:15 W 13 10.00 Partly Cloudy SCT070 92.1 57.9 32% 91 29.91 0.0
23 16:55 W 12 10.00 Partly Cloudy SCT070 91 59.5 35% 90 29.92 0.0
23 16:35 SW 14 G 17 10.00 Fair CLR 91.2 59.4 34% 91 29.93 0.0
23 16:15 NW 12 7.00 Partly Cloudy SCT070 91.4 59 34% 91 29.93 0.0
23 15:55 W 8 10.00 Partly Cloudy SCT070 90.9 60.6 36% 91 29.94 0.0
23 15:35 SW 9 10.00 Partly Cloudy SCT070 91.6 59.9 35% 91 29.95 0.0
23 15:15 W 10 7.00 Partly Cloudy SCT070 92.1 60.1 34% 92 29.95 0.0
23 14:55 W 9 7.00 Partly Cloudy SCT070 91.4 59 34% 91 29.96 0.0
23 14:35 W 12 G 16 10.00 Partly Cloudy SCT060 91.6 58.1 32% 91 29.97 0.0
23 14:15 W 12 G 20 7.00 Partly Cloudy SCT060 SCT090 91.2 58.1 33% 90 29.98 0.0
23 13:55 SW 12 G 16 10.00 Partly Cloudy SCT060 SCT090 90.5 59.9 90.9 72.7 36% 90 29.98 0.0
23 13:35 SW 10 10.00 Partly Cloudy SCT065 89.8 61.5 39% 90 29.99 0.0
23 13:15 NW 7 G 16 10.00 Mostly Cloudy BKN065 88.3 62.6 42% 89 30 0.0
23 12:55 W 12 10.00 Fair CLR 89.8 59.4 36% 89 30 0.0
23 12:35 SW 13 G 17 10.00 Fair CLR 88.9 61.5 40% 89 30 0.0
23 12:15 W 13 10.00 Partly Cloudy SCT044 SCT050 SCT060 88.9 61.5 40% 89 30.01 0.0
23 11:55 W 8 7.00 Mostly Cloudy SCT046 BKN060 BKN075 87.1 66.4 50% 90 30.01 0.0
23 11:35 SW 5 10.00 Partly Cloudy SCT036 86.5 67.8 54% 90 30.01 0.0
23 11:15 Calm 10.00 Fair CLR 85.3 69.1 58% 89 30.01 0.0
23 10:55 W 5 10.00 Fair CLR 84.6 69.4 61% 89 30.02 0.0
23 10:35 NW 3 10.00 Fair CLR 83.7 69.6 63% 88 30.01 0.0
23 10:15 NW 5 10.00 Fair CLR 82.8 69.6 65% 87 30.02 0.0
23 09:55 Calm 10.00 Fair CLR 81.5 70.2 69% 85 30.02 0.0
23 09:35 Calm 10.00 Fair CLR 79.5 69.4 71% 82 30.03 0.0
23 09:15 Calm 10.00 Fair CLR 78.1 69.4 75% 80 30.03 0.0
23 08:55 Calm 10.00 Fair CLR 77.5 69.1 75% 79 30.03 0.0
23 08:35 Calm 10.00 Fair CLR 75.7 68.5 78% 77 30.03 0.0
23 08:15 Calm 10.00 Fair CLR 74.8 68.5 81% 30.03 0.0
23 07:55 Calm 10.00 Fair CLR 72.9 67.6 72.9 68.4 84% 30.02 0.0
23 07:35 Calm 10.00 Fair CLR 70.3 66.7 88% 30.03 0.0
23 07:15 Calm 10.00 Fair CLR 69.8 66.2 88% 30.02 0.0
23 06:55 NE 3 10.00 Fair CLR 68.9 65.7 89% 30.01 0.0
23 06:35 Calm 10.00 Fair CLR 68.7 65.7 90% 30.02 0.0
23 06:15 NE 3 10.00 Fair CLR 68.9 65.7 89% 30.03 0.0
23 05:55 Calm 10.00 Fair CLR 69.1 65.7 89% 30.03 0.0
23 05:35 Calm 10.00 Fair CLR 69.3 65.7 88% 30.03 0.0
23 05:15 NE 3 7.00 Fair CLR 69.8 65.5 86% 30.03 0.0
23 04:55 NE 3 10.00 Fair CLR 70.2 65.7 86% 30.04 0.0
23 04:35 NE 3 10.00 Fair CLR 70.3 65.7 85% 30.04 0.0
23 04:15 NE 3 10.00 Fair CLR 70.3 65.7 85% 30.04 0.0
23 03:55 Calm 10.00 Fair CLR 70.3 66.2 87% 30.04 0.0
23 03:35 Calm 10.00 Fair CLR 70.7 65.8 85% 30.04 0.0
23 03:15 Calm 10.00 Fair CLR 70.7 66 85% 30.04 0.0
23 02:55 Calm 10.00 Fair CLR 71.1 66.4 85% 30.04 0.0
23 02:35 Calm 10.00 Fair CLR 71.4 66.6 85% 30.04 0.0
23 02:15 Calm 10.00 Fair CLR 72 66.6 83% 30.05 0.0
23 01:55 Calm 10.00 Fair CLR 71.8 66.6 86 71.6 84% 30.05 0.0
23 01:35 NE 3 10.00 Fair CLR 71.6 66.2 83% 30.05 0.0
23 01:15 Calm 7.00 Fair CLR 72.5 66.2 81% 30.06 0.0
23 00:55 Calm 10.00 Fair CLR 72.9 65.8 79% 30.06 0.0
23 00:35 Calm 10.00 Fair CLR 73.6 65.8 77% 30.07 0.0
23 00:15 Calm 7.00 Fair CLR 74.5 65.7 74% 30.07 0.0
22 23:55 Calm 10.00 Fair CLR 73.8 65.3 75% 30.07 0.0
22 23:35 NE 3 10.00 Fair CLR 75.2 64.9 71% 77 30.07 0.0
22 23:15 Calm 10.00 Fair CLR 74.5 64.9 72% 30.07 0.0
22 22:55 Calm 10.00 Fair CLR 75.9 64.4 68% 78 30.07 0.0
22 22:35 Calm 10.00 Fair CLR 76.1 64.8 68% 78 30.07 0.0
22 22:15 Calm 10.00 Fair CLR 77 64.8 66% 79 30.06 0.0
22 21:55 SE 3 10.00 Fair CLR 78.8 64.2 61% 81 30.06 0.0
22 21:35 Calm 10.00 Fair CLR 78.3 64.6 63% 80 30.06 0.0
22 21:15 Calm 10.00 Fair CLR 79.3 65.3 62% 81 30.05 0.0
22 20:55 SE 3 10.00 Fair CLR 80.6 65.3 60% 83 30.05 0.0
22 20:35 Calm 10.00 Fair CLR 82.4 64.2 54% 84 30.05 0.0
22 20:15 Calm 10.00 Fair CLR 84.7 64 50% 86 30.05 0.0
22 19:55 Calm 10.00 Fair CLR 86 62.1 89.2 84.9 45% 87 30.05 0.0
22 19:35 SE 5 10.00 Fair CLR 86.4 60.8 42% 86 30.05 0.0
22 19:15 SE 5 10.00 Fair CLR 87.1 61 42% 87 30.05 0.0
22 18:55 Calm 10.00 Fair CLR 88 61.2 41% 88 30.05 0.0
22 18:35 SE 5 10.00 Fair CLR 87.6 64 46% 89 30.05 0.0
22 18:15 SE 6 10.00 Fair CLR 88 64.4 46% 90 30.05 0.0
22 17:55 SE 5 10.00 Fair CLR 88.3 63.7 44% 90 30.05 0.0
22 17:35 SE 3 10.00 Fair CLR 87.8 63.3 44% 89 30.06 0.0
22 17:15 SE 7 10.00 Fair CLR 88.3 63.3 43% 89 30.07 0.0
22 16:55 SE 7 10.00 Fair CLR 89.1 64.2 44% 91 30.07 0.0
22 16:35 S 3 10.00 Fair CLR 87.8 63.3 44% 89 30.07 0.0
22 16:15 SW 5 7.00 Fair CLR 87.8 62.6 43% 88 30.08 0.0
22 15:55 S 3 10.00 Fair CLR 87.6 62.6 43% 88 30.09 0.0
22 15:35 Calm 10.00 Fair CLR 87.8 63.3 44% 89 30.1 0.0
22 15:15 SE 3 10.00 Fair CLR 86.9 63.3 45% 88 30.11 0.0
22 14:55 NE 3 10.00 Partly Cloudy SCT046 86.5 63.1 46% 87 30.11 0.0
22 14:35 S 3 7.00 Partly Cloudy SCT046 85.5 63.5 48% 87 30.12 0.0
22 14:15 Calm 10.00 Partly Cloudy SCT044 85.3 63.5 48% 86 30.13 0.0
22 13:55 E 3 10.00 Partly Cloudy SCT044 85.8 65.3 85.8 71.4 50% 88 30.15 0.0
22 13:35 Calm 7.00 Partly Cloudy SCT038 84.2 65.5 53% 86 30.15 0.0
22 13:15 S 5 7.00 Partly Cloudy SCT038 84 65.7 54% 86 30.16 0.0
22 12:55 Calm 10.00 Fair CLR 82.8 65.8 57% 85 30.17 0.0
22 12:35 E 3 7.00 Fair CLR 82.9 66.2 57% 85 30.17 0.0
22 12:15 SE 5 10.00 Fair CLR 82.2 65.7 57% 84 30.18 0.0
22 11:55 E 6 7.00 Fair CLR 82.4 66.7 59% 85 30.18 0.0
22 11:35 SE 5 7.00 Fair CLR 81 67.5 64% 84 30.19 0.0
22 11:15 S 3 10.00 Fair CLR 79.9 66.7 64% 82 30.18 0.0
22 10:55 SE 3 10.00 Fair CLR 81.1 66.2 61% 83 30.19 0.0
22 10:35 Calm 10.00 Fair CLR 80.6 65.8 61% 83 30.19 0.0
22 10:15 NE 3 7.00 Fair CLR 80.6 65.1 59% 82 30.19 0.0
22 09:55 NE 6 7.00 Fair CLR 80.6 64.4 58% 82 30.19 0.0
22 09:35 NE 7 7.00 Fair CLR 79.3 63.5 58% 81 30.19 0.0
22 09:15 NE 6 7.00 Fair CLR 77.4 63.5 62% 79 30.19 0.0
22 08:55 N 5 10.00 Fair CLR 76.5 63.3 64% 78 30.19 0.0
22 08:35 N 3 10.00 Fair CLR 74.5 63.7 69% 30.19 0.0
22 08:15 N 3 10.00 Fair CLR 73.2 63.9 73% 30.19 0.0
22 07:55 NE 3 10.00 Fair CLR 71.1 63.5 71.1 66.2 77% 30.19 0.0
22 07:35 NE 3 7.00 Fair CLR 69.6 63.3 81% 30.18 0.0
22 07:15 NE 6 7.00 Fair CLR 68.2 62.8 83% 30.18 0.0
22 06:55 NE 5 10.00 Fair CLR 67.1 63 87% 30.18 0.0
22 06:35 NE 5 7.00 Fair CLR 66.4 63.1 89% 30.19 0.0
22 06:15 NE 3 7.00 Fair CLR 66.6 63.3 89% 30.18 0.0
22 05:55 NE 6 10.00 Fair CLR 67.5 63.7 88% 30.18 0.0
22 05:35 NE 5 10.00 Fair CLR 66.6 63.5 90% 30.18 0.0
22 05:15 NE 3 10.00 Fair CLR 67.3 63.7 88% 30.18 0.0
22 04:55 NE 5 10.00 Fair CLR 68 63.7 86% 30.18 0.0
22 04:35 NE 5 10.00 Fair CLR 68.2 63.5 85% 30.18 0.0
22 04:15 NE 5 5.00 Fog/Mist CLR 67.3 63.1 87% 30.18 0.0
22 03:55 NE 3 10.00 Fair CLR 68.5 63.3 84% 30.18 0.0
22 03:35 NE 3 10.00 Fair CLR 68.5 63.7 85% 30.18 0.0
22 03:15 NE 5 7.00 Fair CLR 68.7 63.5 84% 30.18 0.0
22 02:55 Calm 7.00 Fair CLR 69.8 63.5 81% 30.19 0.0
22 02:35 Calm 10.00 Fair CLR 69.8 63.9 82% 30.19 0.0
22 02:15 NE 5 10.00 Fair CLR 69.8 63.5 81% 30.19 0.0
22 01:55 NE 5 10.00 Fair CLR 70.2 63 83.3 69.8 78% 30.2 0.0
22 01:35 NE 5 10.00 Fair CLR 70.2 63 78% 30.2 0.0
22 01:15 NE 3 7.00 Fair CLR 70.9 63 76% 30.2 0.0
22 00:55 Calm 10.00 Fair CLR 71.4 62.8 74% 30.21 0.0
22 00:35 Calm 10.00 Fair CLR 72 63 73% 30.21 0.0
22 00:15 Calm 10.00 Fair CLR 73.2 63.5 72% 30.21 0.0
21 23:55 Calm 7.00 Fair CLR 73.8 63 69% 30.21 0.0
21 23:35 Calm 10.00 Fair CLR 77.4 61.5 58% 79 30.21 0.0
21 23:15 Calm 10.00 Fair CLR 77.7 61.9 58% 79 30.2 0.0
21 22:55 Calm 10.00 Fair CLR 78.1 61.7 57% 80 30.2 0.0
21 22:35 Calm 10.00 Fair CLR 78.1 61.5 57% 80 30.19 0.0
21 22:15 E 3 10.00 Fair CLR 77.5 61.7 58% 79 30.19 0.0
21 21:55 E 3 10.00 Fair CLR 77.5 62.6 60% 79 30.18 0.0
21 21:35 Calm 10.00 Fair CLR 77.5 62.8 61% 79 30.18 0.0
21 21:15 Calm 10.00 Fair CLR 79 64.6 61% 81 30.18 0.0
21 20:55 Calm 10.00 Fair CLR 79.5 65.7 63% 81 30.18 0.0
21 20:35 Calm 10.00 Fair CLR 81.3 64.8 57% 83 30.17 0.0
21 20:15 Calm 10.00 Fair CLR 82.4 64.9 56% 84 30.18 0.0
21 19:55 Calm 10.00 Fair CLR 83.3 64.4 53% 85 30.18 0.0
21 19:35 Calm 7.00 Fair CLR 84.4 64.2 51% 86 30.18 0.0
21 19:15 SE 5 10.00 Fair CLR 84.7 64.6 51% 86 30.18 0.0
21 18:55 Calm 7.00 Fair CLR 85.3 64.2 49% 87 30.18 0.0
21 18:35 E 5 10.00 Fair CLR 85.3 64 49% 87 30.18 0.0
21 18:15 SE 6 10.00 Fair CLR 85.6 64 49% 87 30.18 0.0
21 17:55 E 5 10.00 Fair CLR 86.5 64 47% 88 30.18 0.0
21 17:35 Calm 7.00 Fair CLR 86.5 63.7 47% 88 30.19 0.0
21 17:15 E 6 10.00 Fair CLR 85.6 63.1 47% 87 30.19 0.0
21 16:55 E 3 7.00 Fair CLR 0 0 0% 30.2 0.0
21 16:35 E 5 10.00 Fair CLR 86.4 63.5 47% 87 30.21 0.0
21 16:15 NE 3 10.00 Fair CLR 86.5 63 45% 87 30.2 0.0
21 15:55 SE 3 10.00 Fair CLR 85.6 63.3 47% 87 30.21 0.0
21 15:35 SE 6 10.00 Fair CLR 86.5 63.7 47% 88 30.22 0.0
21 15:15 E 7 10.00 Partly Cloudy SCT050 86.7 63.7 46% 88 30.22 0.0
21 14:55 E 9 10.00 Partly Cloudy SCT050 0 0 0% 30.23 0.0
21 14:35 S 7 7.00 Fair CLR 84.9 63.1 48% 86 30.24 0.0
21 14:15 E 6 7.00 Partly Cloudy SCT049 84.2 62.8 49% 85 30.24 0.0
21 13:55 SE 6 10.00 Partly Cloudy SCT045 84.6 61.7 85.3 68.4 46% 85 30.25 0.0
21 13:35 NE 8 10.00 Partly Cloudy SCT045 84.7 62.6 47% 86 30.26 0.0
21 13:15 E 8 4.00 Mostly Cloudy with Haze BKN047 83.1 61 47% 84 30.27 0.0
21 12:55 E 7 10.00 Partly Cloudy SCT045 83.1 62.4 50% 84 30.28 0.0
21 12:35 NE 7 10.00 Partly Cloudy SCT045 84 61.3 46% 84 30.28 0.0
21 12:15 Calm 10.00 Partly Cloudy SCT045 81.7 61.2 50% 82 30.28 0.0
21 11:55 NE 8 10.00 Fair CLR 81.7 61.3 50% 82 30.29 0.0
21 11:35 E 6 7.00 Fair CLR 82.4 62.4 51% 83 30.29 0.0
21 11:15 N 8 10.00 Fair CLR 80.4 62.4 54% 82 30.3 0.0
21 10:55 N 7 10.00 Fair CLR 79.5 62.8 57% 81 30.29 0.0
21 10:35 NE 6 10.00 Fair CLR 78.8 61.9 56% 80 30.3 0.0
Date Time (edt) Wind (mph) Vis. (mi.) Weather Sky Cond. Air Dwpt Max. Min. Relative Humidity Wind Chill (°F) Heat Index (°F) altimeter (in) sea level (mb) 1 hr 3 hr 6 hr
6 hour
Temperature (ºF) Pressure Precipitation (in)